Total_Precipitation_Accumulation
0.80 0.83 0.89 0.94 0.96 0.94 0.96 1.02 1.14 1.16 1.02 0.85 0.79 0.84 0.90 0.94 1.09 0.94 0.89 0.89 0.78 0.71 0.70 0.72 0.70 0.68 0.67 0.67 0.65 0.62 0.60 0.59 0.62 0.71 0.83 0.95 1.05 1.12
0.66 0.67 0.70 0.76 0.89 0.98 1.03 1.05 1.10 1.17 1.16 0.96 0.84 0.85 0.91 0.93 1.08 0.92 0.90 0.97 0.82 0.70 0.65 0.74 0.78 0.74 0.73 0.70 0.67 0.66 0.65 0.65 0.65 0.69 0.77 0.88 0.99 1.09
0.54 0.54 0.59 0.63 0.71 0.78 0.88 0.97 1.09 1.19 1.29 1.13 0.92 0.88 0.92 0.95 0.98 0.88 0.81 0.77 0.72 0.71 0.60 0.65 0.88 1.04 0.94 0.82 0.75 0.70 0.68 0.69 0.69 0.72 0.79 0.87 0.93 0.99
0.43 0.45 0.44 0.46 0.54 0.60 0.70 0.78 0.86 0.96 1.11 1.12 0.96 0.89 0.91 0.96 1.01 0.98 0.85 0.73 0.68 0.76 0.67 0.62 0.76 1.14 1.22 0.98 0.89 0.80 0.70 0.68 0.67 0.71 0.76 0.79 0.80 0.86
0.36 0.38 0.40 0.44 0.50 0.56 0.63 0.67 0.75 0.82 0.97 1.05 0.98 0.92 0.93 0.98 1.06 1.00 0.83 0.79 0.61 0.59 0.62 0.66 0.78 1.29 1.63 1.39 1.10 0.99 0.83 0.73 0.65 0.66 0.71 0.73 0.70 0.67
0.29 0.30 0.33 0.40 0.47 0.53 0.57 0.63 0.73 0.83 0.91 1.00 1.01 1.00 1.00 1.01 1.06 1.09 0.93 0.80 0.64 0.46 0.54 0.63 0.80 1.27 1.82 1.98 1.60 1.32 1.09 0.90 0.77 0.68 0.64 0.61 0.55 0.49
0.28 0.28 0.27 0.33 0.42 0.46 0.51 0.63 0.77 0.88 0.90 0.96 0.99 1.01 1.03 1.08 1.06 1.00 0.93 0.79 0.63 0.51 0.54 0.57 0.82 1.48 2.05 2.34 2.18 1.64 1.23 1.00 0.83 0.71 0.64 0.57 0.50 0.42
0.35 0.33 0.26 0.25 0.29 0.35 0.43 0.53 0.65 0.79 0.90 0.97 0.99 0.97 0.96 0.99 0.99 0.97 0.96 0.92 0.79 0.56 0.54 0.62 0.94 1.75 2.33 2.60 2.50 1.82 1.26 1.03 0.90 0.80 0.73 0.64 0.55 0.46
0.38 0.36 0.30 0.26 0.31 0.36 0.39 0.42 0.51 0.64 0.83 0.98 1.03 0.93 0.96 1.03 1.07 1.07 0.98 0.98 0.92 0.64 0.63 0.79 1.11 1.72 2.22 2.65 2.58 1.93 1.42 1.14 1.02 0.92 0.83 0.73 0.61 0.49
0.31 0.32 0.38 0.42 0.36 0.34 0.36 0.49 0.64 0.73 0.75 0.77 0.91 0.91 0.93 0.93 0.89 0.91 0.88 0.93 0.85 0.64 0.66 0.92 1.18 1.62 2.02 2.46 2.47 1.90 1.46 1.22 1.09 0.98 0.85 0.73 0.63 0.53
0.28 0.27 0.31 0.39 0.36 0.40 0.52 0.71 0.91 1.05 0.92 0.86 0.90 1.01 1.04 0.91 0.74 0.73 0.92 1.02 0.88 0.65 0.62 0.86 1.10 1.34 1.67 2.03 2.06 1.78 1.45 1.26 1.10 0.95 0.81 0.69 0.61 0.57
0.35 0.33 0.36 0.38 0.39 0.51 0.63 0.87 1.09 1.20 1.02 0.95 1.05 1.18 1.12 1.04 0.95 0.94 1.06 1.03 0.89 0.80 0.67 0.78 0.94 1.07 1.46 1.65 1.55 1.42 1.36 1.33 1.19 1.05 0.89 0.71 0.55 0.51
0.38 0.43 0.45 0.46 0.44 0.56 0.74 0.91 1.12 1.16 1.10 1.06 1.04 1.03 1.02 1.02 0.95 0.94 0.92 0.88 0.86 0.84 0.69 0.78 0.96 1.05 1.26 1.44 1.41 1.33 1.22 1.21 1.20 1.24 1.17 0.91 0.64 0.52
0.46 0.50 0.50 0.49 0.51 0.67 0.82 1.02 1.23 1.32 1.18 1.03 0.89 0.82 0.80 0.84 0.81 0.70 0.63 0.61 0.65 0.69 0.65 0.73 0.98 1.13 1.12 1.12 1.28 1.25 1.21 1.22 1.20 1.22 1.26 1.12 0.91 0.77
0.42 0.55 0.57 0.52 0.68 0.96 1.13 1.24 1.41 1.46 1.24 0.96 0.83 0.74 0.67 0.63 0.61 0.59 0.54 0.50 0.48 0.47 0.45 0.55 0.79 0.95 0.98 0.99 1.10 1.11 1.22 1.42 1.35 1.33 1.26 1.15 1.03 0.90
0.34 0.53 0.66 0.71 0.87 1.15 1.36 1.46 1.51 1.40 1.14 0.91 0.77 0.69 0.60 0.55 0.56 0.52 0.51 0.47 0.48 0.54 0.49 0.50 0.62 0.76 0.89 0.88 0.94 1.03 1.14 1.54 1.59 1.38 1.26 1.24 1.14 1.01
0.32 0.49 0.68 0.78 0.97 1.19 1.32 1.33 1.27 1.17 1.06 0.88 0.74 0.66 0.62 0.59 0.56 0.49 0.47 0.42 0.45 0.51 0.54 0.54 0.59 0.62 0.68 0.73 0.86 0.98 1.12 1.36 1.43 1.22 1.07 1.18 1.24 1.10
0.37 0.57 0.74 0.83 0.97 1.09 1.16 1.13 1.05 0.96 0.86 0.77 0.71 0.63 0.59 0.56 0.54 0.47 0.40 0.39 0.45 0.46 0.45 0.44 0.42 0.42 0.49 0.66 0.87 0.94 0.98 1.14 1.17 1.00 0.81 0.90 1.16 1.15
0.40 0.61 0.77 0.88 0.97 1.01 1.01 0.96 0.90 0.84 0.73 0.66 0.62 0.57 0.51 0.47 0.45 0.40 0.36 0.36 0.37 0.36 0.33 0.30 0.26 0.22 0.32 0.68 0.96 1.01 0.91 0.91 0.89 0.84 0.77 0.75 0.98 1.11
0.45 0.61 0.73 0.78 0.84 0.88 0.85 0.83 0.78 0.71 0.62 0.58 0.58 0.54 0.46 0.40 0.37 0.34 0.32 0.29 0.28 0.26 0.23 0.21 0.20 0.21 0.27 0.50 0.89 1.08 0.93 0.71 0.61 0.64 0.67 0.72 0.85 0.92
0.46 0.55 0.62 0.66 0.69 0.72 0.69 0.66 0.64 0.60 0.53 0.49 0.49 0.49 0.46 0.39 0.33 0.26 0.22 0.17 0.18 0.20 0.22 0.26 0.25 0.20 0.18 0.23 0.51 0.77 0.81 0.74 0.57 0.48 0.47 0.51 0.55 0.51
0.41 0.49 0.52 0.51 0.51 0.53 0.50 0.45 0.45 0.45 0.43 0.42 0.42 0.41 0.39 0.33 0.26 0.22 0.18 0.16 0.15 0.15 0.17 0.19 0.17 0.13 0.13 0.19 0.36 0.53 0.59 0.53 0.46 0.43 0.42 0.37 0.33 0.41
0.36 0.38 0.41 0.42 0.38 0.35 0.35 0.34 0.35 0.36 0.36 0.37 0.35 0.34 0.31 0.26 0.20 0.15 0.12 0.10 0.09 0.08 0.10 0.13 0.12 0.10 0.11 0.13 0.20 0.28 0.31 0.29 0.26 0.28 0.41 0.47 0.43 0.50